When you browse on this site, cookies collect data to enhance your experience and personalize the content and advertising you see.
Visit our Privacy Policy to learn more. By continuing to use the site, you agree to this use of cookies and data.
  • En España
  • Lista de países
  • Para 7 días
  • Temperatura del agua
  • Mapa Satelital
  • El tiempo en el mapa
  • Informadores
  • user-avatar
    Iniciar sesión

    Tiempo cada hora Atzitzintla

    Hoy, 21 Mayo, Martes

    Tiempo Temperatura Precipitaciones Viento Presión Humedad
    00:00 +14°C° 0 mm 1 mps 550 mmHg 74%
    01:00 +13°C° 0.3 mm 1 mps 550 mmHg 73%
    02:00 +13°C° 0.3 mm 1 mps 550 mmHg 72%
    03:00 +13°C° 0.3 mm 2 mps 549 mmHg 70%
    04:00 +13°C° 0.1 mm 2 mps 549 mmHg 67%
    05:00 +13°C° 0.1 mm 2 mps 549 mmHg 63%
    06:00 +12°C° 0 mm 2 mps 549 mmHg 60%
    07:00 +14°C° 0.1 mm 2 mps 550 mmHg 58%
    08:00 +16°C° 0.1 mm 2 mps 551 mmHg 57%
    09:00 +18°C° 0.1 mm 2 mps 552 mmHg 56%
    10:00 +20°C° 0.5 mm 2 mps 553 mmHg 51%
    11:00 +23°C° 0.5 mm 2 mps 554 mmHg 46%
    12:00 +25°C° 0.5 mm 1 mps 554 mmHg 41%
    13:00 +24°C° 0.9 mm 1 mps 554 mmHg 42%
    14:00 +24°C° 0.9 mm 2 mps 553 mmHg 42%
    15:00 +23°C° 0.9 mm 2 mps 552 mmHg 43%
    16:00 +23°C° 1.3 mm 2 mps 552 mmHg 46%
    17:00 +21°C° 1.3 mm 2 mps 551 mmHg 49%
    18:00 +20°C° 1.3 mm 2 mps 551 mmHg 53%
    19:00 +19°C° 0.9 mm 2 mps 550 mmHg 59%
    20:00 +17°C° 0.9 mm 2 mps 550 mmHg 66%
    21:00 +15°C° 0.9 mm 2 mps 550 mmHg 73%
    22:00 +15°C° 0.6 mm 1 mps 550 mmHg 73%
    23:00 +15°C° 0.6 mm 1 mps 551 mmHg 73%

    Mañana, 22 Mayo, Miércoles

    Tiempo Temperatura Precipitaciones Viento Presión Humedad
    00:00 +15°C° 0.6 mm 1 mps 551 mmHg 73%
    01:00 +15°C° 0.1 mm 1 mps 550 mmHg 75%
    02:00 +14°C° 0.1 mm 1 mps 550 mmHg 77%
    03:00 +14°C° 0.1 mm 1 mps 549 mmHg 78%
    04:00 +13°C° 0 mm 1 mps 549 mmHg 79%
    05:00 +13°C° 0 mm 1 mps 549 mmHg 80%
    06:00 +13°C° 0 mm 1 mps 549 mmHg 80%
    07:00 +15°C° 0 mm 1 mps 551 mmHg 72%
    08:00 +18°C° 0 mm 1 mps 552 mmHg 63%
    09:00 +20°C° 0 mm 1 mps 553 mmHg 55%
    10:00 +21°C° 0 mm 1 mps 554 mmHg 48%
    11:00 +21°C° 0 mm 2 mps 554 mmHg 42%
    12:00 +24°C° 0 mm 2 mps 555 mmHg 36%
    13:00 +24°C° 0 mm 2 mps 555 mmHg 34%
    14:00 +24°C° 0 mm 3 mps 554 mmHg 33%
    15:00 +24°C° 0 mm 3 mps 554 mmHg 31%
    16:00 +22°C° 0.1 mm 3 mps 553 mmHg 38%
    17:00 +21°C° 0.1 mm 3 mps 552 mmHg 45%
    18:00 +19°C° 0.1 mm 3 mps 552 mmHg 51%
    19:00 +18°C° 0.1 mm 3 mps 551 mmHg 62%
    20:00 +17°C° 0.1 mm 2 mps 551 mmHg 73%
    21:00 +15°C° 0.1 mm 2 mps 551 mmHg 84%
    22:00 +15°C° 0 mm 2 mps 551 mmHg 85%
    23:00 +14°C° 0 mm 2 mps 551 mmHg 86%

    Pasado mañana, 23 Mayo, Jueves

    Tiempo Temperatura Precipitaciones Viento Presión Humedad
    00:00 +14°C° 0 mm 2 mps 552 mmHg 87%
    01:00 +13°C° 0 mm 1 mps 551 mmHg 85%
    02:00 +13°C° 0 mm 1 mps 550 mmHg 84%
    03:00 +12°C° 0 mm 1 mps 550 mmHg 82%
    04:00 +12°C° 0 mm 1 mps 550 mmHg 80%
    05:00 +12°C° 0 mm 1 mps 550 mmHg 77%
    06:00 +11°C° 0 mm 1 mps 550 mmHg 75%
    07:00 +14°C° 0 mm 1 mps 551 mmHg 67%
    08:00 +16°C° 0 mm 1 mps 553 mmHg 59%
    09:00 +19°C° 0 mm 1 mps 554 mmHg 51%
    10:00 +20°C° 0 mm 1 mps 554 mmHg 48%
    11:00 +20°C° 0 mm 2 mps 555 mmHg 45%
    12:00 +21°C° 0 mm 2 mps 555 mmHg 42%
    13:00 +21°C° 0.1 mm 3 mps 555 mmHg 44%
    14:00 +21°C° 0.1 mm 3 mps 554 mmHg 46%
    15:00 +21°C° 0.1 mm 4 mps 553 mmHg 49%
    16:00 +19°C° 0.8 mm 3 mps 553 mmHg 58%
    17:00 +18°C° 0.8 mm 3 mps 552 mmHg 67%
    18:00 +17°C° 0.8 mm 3 mps 551 mmHg 76%
    19:00 +16°C° 0.6 mm 3 mps 551 mmHg 80%
    20:00 +14°C° 0.6 mm 3 mps 552 mmHg 84%
    21:00 +14°C° 0.6 mm 2 mps 552 mmHg 88%
    22:00 +14°C° 0.1 mm 2 mps 552 mmHg 88%
    23:00 +13°C° 0.1 mm 2 mps 552 mmHg 88%

    24 Mayo, Viernes

    Tiempo Temperatura Precipitaciones Viento Presión Humedad
    00:00 +13°C° 0.1 mm 2 mps 552 mmHg 88%
    01:00 +13°C° 0 mm 1 mps 551 mmHg 87%
    02:00 +12°C° 0 mm 1 mps 551 mmHg 86%
    03:00 +12°C° 0 mm 1 mps 550 mmHg 85%
    04:00 +11°C° 0 mm 1 mps 550 mmHg 84%
    05:00 +11°C° 0 mm 1 mps 550 mmHg 83%
    06:00 +11°C° 0 mm 1 mps 550 mmHg 81%
    07:00 +13°C° 0 mm 1 mps 551 mmHg 73%
    08:00 +15°C° 0 mm 1 mps 553 mmHg 64%
    09:00 +17°C° 0 mm 2 mps 554 mmHg 56%
    10:00 +18°C° 0 mm 2 mps 555 mmHg 52%
    11:00 +19°C° 0 mm 2 mps 555 mmHg 48%
    12:00 +20°C° 0 mm 3 mps 555 mmHg 44%
    13:00 +20°C° 0.1 mm 3 mps 555 mmHg 48%
    14:00 +20°C° 0.1 mm 3 mps 554 mmHg 51%
    15:00 +20°C° 0.1 mm 3 mps 554 mmHg 54%
    16:00 +19°C° 0.8 mm 3 mps 553 mmHg 61%
    17:00 +17°C° 0.8 mm 3 mps 552 mmHg 68%
    18:00 +16°C° 0.8 mm 3 mps 552 mmHg 75%
    19:00 +16°C° 0.5 mm 3 mps 552 mmHg 79%
    20:00 +15°C° 0.5 mm 2 mps 552 mmHg 83%
    21:00 +14°C° 0.5 mm 2 mps 552 mmHg 87%
    22:00 +14°C° 0 mm 2 mps 552 mmHg 87%
    23:00 +13°C° 0 mm 2 mps 552 mmHg 87%

    25 Mayo, Sábado

    Tiempo Temperatura Precipitaciones Viento Presión Humedad
    00:00 +13°C° 0 mm 1 mps 552 mmHg 87%
    01:00 +12°C° 0 mm 1 mps 552 mmHg 85%
    02:00 +12°C° 0 mm 1 mps 551 mmHg 83%
    03:00 +11°C° 0 mm 1 mps 550 mmHg 81%
    04:00 +11°C° 0 mm 1 mps 550 mmHg 78%
    05:00 +10°C° 0 mm 1 mps 550 mmHg 74%
    06:00 +10°C° 0 mm 1 mps 550 mmHg 71%
    07:00 +12°C° 0 mm 2 mps 552 mmHg 65%
    08:00 +14°C° 0 mm 2 mps 553 mmHg 59%
    09:00 +16°C° 0 mm 2 mps 555 mmHg 53%
    10:00 +18°C° 0 mm 3 mps 555 mmHg 51%
    11:00 +19°C° 0 mm 3 mps 555 mmHg 48%
    12:00 +20°C° 0 mm 3 mps 556 mmHg 46%
    13:00 +20°C° 0 mm 4 mps 555 mmHg 48%
    14:00 +20°C° 0 mm 4 mps 555 mmHg 50%
    15:00 +20°C° 0 mm 4 mps 554 mmHg 52%
    16:00 +19°C° 0.1 mm 4 mps 554 mmHg 58%
    17:00 +18°C° 0.1 mm 4 mps 553 mmHg 65%
    18:00 +15°C° 0.1 mm 4 mps 553 mmHg 72%
    19:00 +14°C° 0 mm 4 mps 553 mmHg 77%
    20:00 +13°C° 0 mm 3 mps 553 mmHg 81%
    21:00 +12°C° 0 mm 3 mps 553 mmHg 86%
    22:00 +13°C° 0 mm 2 mps 553 mmHg 85%
    23:00 +12°C° 0 mm 2 mps 552 mmHg 85%

    26 Mayo, Domingo

    Tiempo Temperatura Precipitaciones Viento Presión Humedad
    00:00 +10°C° 0 mm 2 mps 552 mmHg 84%
    01:00 +10°C° 0 mm 2 mps 552 mmHg 82%
    02:00 +10°C° 0 mm 2 mps 551 mmHg 80%
    03:00 +10°C° 0 mm 1 mps 551 mmHg 78%
    04:00 +10°C° 0 mm 1 mps 551 mmHg 76%
    05:00 +10°C° 0 mm 1 mps 551 mmHg 74%
    06:00 +9°C° 0 mm 1 mps 551 mmHg 72%
    07:00 +12°C° 0 mm 2 mps 552 mmHg 61%
    08:00 +14°C° 0 mm 2 mps 554 mmHg 51%
    09:00 +17°C° 0 mm 2 mps 555 mmHg 41%
    10:00 +18°C° 0 mm 3 mps 556 mmHg 38%
    11:00 +19°C° 0 mm 3 mps 556 mmHg 36%
    12:00 +20°C° 0 mm 3 mps 557 mmHg 33%
    13:00 +20°C° 0 mm 4 mps 556 mmHg 36%
    14:00 +20°C° 0 mm 4 mps 556 mmHg 38%
    15:00 +21°C° 0 mm 4 mps 555 mmHg 41%
    16:00 +19°C° 0 mm 4 mps 554 mmHg 51%
    17:00 +18°C° 0 mm 4 mps 554 mmHg 61%
    18:00 +15°C° 0 mm 4 mps 553 mmHg 71%
    19:00 +14°C° 0 mm 4 mps 553 mmHg 76%
    20:00 +13°C° 0 mm 3 mps 553 mmHg 81%
    21:00 +12°C° 0 mm 3 mps 553 mmHg 86%
    22:00 +12°C° 0 mm 2 mps 552 mmHg 85%
    23:00 +10°C° 0 mm 2 mps 552 mmHg 83%
    Mostrar más